Waarnemingen

Advertentie
Mijn weer
Arkona, Duitsland (10091): temperatuur & dauwpunt: 22.06.2017 05:00:00 - 28.06.2017 05:00:00 (CEST)Arkona, Duitsland (10091): temperatuur 5cm & temperatuur -5cm: 22.06.2017 05:00:00 - 28.06.2017 05:00:00 (CEST)Arkona, Duitsland (10091): temperatuur -20cm & temperatuur -100cm: 22.06.2017 05:00:00 - 28.06.2017 05:00:00 (CEST)Arkona, Duitsland (10091): windsnelheid & windstoten: 22.06.2017 05:00:00 - 28.06.2017 05:00:00 (CEST)Arkona, Duitsland (10091): windrichting: 22.06.2017 05:00:00 - 28.06.2017 05:00:00 (CEST)Arkona, Duitsland (10091): luchtdruk: 22.06.2017 05:00:00 - 28.06.2017 05:00:00 (CEST)Arkona, Duitsland (10091): zicht: 22.06.2017 05:00:00 - 28.06.2017 05:00:00 (CEST)Arkona, Duitsland (10091): Zonneschijnduur: 22.06.2017 05:00:00 - 28.06.2017 05:00:00 (CEST)Arkona, Duitsland (10091): neerslag: 22.06.2017 05:00:00 - 28.06.2017 05:00:00 (CEST)
Datum & Tijd tt [°C] td [°C] tt 5cm [°C] tt -5cm [°C] tt -20cm [°C] tt -100cm [°C] ff [km/u] ff [kn] fx [km/u] fx [kn] dd ppp [hPa] vv [km] sd [min] rr [mm]
28.06.2017 05:00:00 13,0 10,4 11,4 14,1 17,5 15,4 13 7 27 14 ONO 1008,8 27 0 0,0
28.06.2017 04:00:00 13,2 10,1 12,3 14,5 17,8 15,4 9 5 23 12 ONO 1009,6 30 0 0,0
28.06.2017 03:00:00 13,2 9,5 11,4 14,6 18,2 15,4 5 3 20 11 ONO 1009,7 31 0 0,0
28.06.2017 02:00:00 13,2 9,7 11,7 15,3 18,7 15,4 6 3 20 11 O 1010,1 30 0 0,0
28.06.2017 01:00:00 12,7 9,3 11,7 15,6 19,1 15,4 13 7 16 9 OZO 1010,7 33 0 0,0
28.06.2017 00:00:00 13,1 8,7 12,0 16,3 19,6 15,4 9 5 14 8 ZO 1011,0 35 0 0,0
27.06.2017 23:00:00 13,0 7,4 11,4 17,3 20,2 15,4 8 4 14 7 ZZO 1011,2 39 0 0,0
27.06.2017 22:00:00 13,3 7,7 12,0 18,9 20,6 15,4 7 4 10 5 ZO 1011,4 36 30 0,0
27.06.2017 21:00:00 13,4 8,0 12,3 21,0 20,9 15,4 5 3 9 5 NO 1011,3 40 55 0,0
27.06.2017 20:00:00 14,3 7,6 16,8 24,0 20,9 15,4 5 3 11 6 NNW 1011,6 31 60 0,0
27.06.2017 19:00:00 15,0 7,2 17,8 25,9 20,7 15,4 8 4 17 9 NW 1012,0 47 60 0,0
27.06.2017 18:00:00 15,6 8,0 20,2 27,5 20,3 15,4 11 6 18 10 NW 1012,4 26 60 0,0
27.06.2017 17:00:00 15,2 8,1 19,4 28,1 19,7 15,5 12 6 21 12 NW 1012,9 31 60 0,0
27.06.2017 16:00:00 16,0 9,0 20,1 28,4 19,1 15,5 15 8 28 15 NW 1013,3 31 54 0,0
27.06.2017 15:00:00 14,9 7,9 19,6 26,7 18,3 15,5 15 8 27 14 WNW 1013,4 45 40 0,0
27.06.2017 14:00:00 14,8 7,1 18,6 27,2 17,4 15,5 17 9 33 18 WNW 1013,6 40 58 0,0
27.06.2017 13:00:00 14,4 7,1 18,9 25,2 16,6 15,5 23 12 34 18 WNW 1013,7 40 59 0,0
27.06.2017 12:00:00 14,3 6,8 18,3 22,3 16,0 15,5 23 13 36 19 WNW 1013,4 40 48 0,0
27.06.2017 11:00:00 13,4 6,5 15,1 19,8 15,5 15,5 27 15 35 19 W 1013,5 40 45 0,0
27.06.2017 10:00:00 13,2 6,7 15,2 17,5 15,2 15,5 17 9 31 17 WNW 1013,4 45 19 0,0
27.06.2017 09:00:00 12,8 6,9 13,9 15,4 15,1 15,5 20 11 34 18 WNW 1013,2 45 7 0,0
27.06.2017 08:00:00 12,7 7,1 13,3 14,3 15,1 15,5 18 10 35 19 WNW 1012,8 40 31 0,0
27.06.2017 07:00:00 12,2 8,4 11,7 12,7 15,2 15,5 26 14 41 22 W 1012,3 40 39 0,0
27.06.2017 06:00:00 12,3 8,2 11,5 11,9 15,5 15,5 29 16 43 23 WNW 1012,0 45 21 0,0
27.06.2017 05:00:00 12,1 7,9 11,2 12,1 15,8 15,5 31 17 43 23 W 1011,8 44 0 0,0
27.06.2017 04:00:00 12,6 8,0 11,9 12,5 16,0 15,6 29 16 40 22 W 1012,1 51 0 0,0
27.06.2017 03:00:00 13,0 8,4 12,4 12,7 16,4 15,6 29 16 46 25 W 1011,9 53 0 0,0
27.06.2017 02:00:00 13,4 8,8 12,2 13,0 16,7 15,6 34 18 49 27 W 1011,6 51 0 0,0
27.06.2017 01:00:00 13,3 9,2 12,3 13,5 17,1 15,6 34 18 48 26 W 1011,3 52 0 0,0
27.06.2017 00:00:00 13,9 9,3 12,8 14,0 17,5 15,6 35 19 52 28 W 1011,1 52 0 0,0
26.06.2017 23:00:00 14,1 9,2 13,0 14,8 17,9 15,6 36 19 48 26 W 1010,9 59 0 0,0
26.06.2017 22:00:00 14,0 10,4 12,8 15,9 18,3 15,6 25 14 43 23 W 1010,8 48 34 0,0
26.06.2017 21:00:00 14,9 10,2 14,1 17,4 18,6 15,6 28 15 44 24 W 1010,3 51 57 0,0
26.06.2017 20:00:00 15,5 10,5 15,8 19,7 18,7 15,6 33 18 47 26 W 1010,1 32 59 0,0
26.06.2017 19:00:00 16,0 10,7 16,5 20,8 18,6 15,7 31 17 52 28 W 1010,0 38 33 0,0
26.06.2017 18:00:00 16,7 10,6 18,7 23,0 18,4 15,7 39 21 52 28 W 1009,7 16 60 0,0
26.06.2017 17:00:00 16,7 9,9 18,7 22,7 18,1 15,7 41 22 63 34 W 1009,3 21 41 0,0
26.06.2017 16:00:00 16,4 9,9 18,0 24,3 17,5 15,7 44 24 63 34 W 1009,1 37 53 0,0
26.06.2017 15:00:00 16,6 9,2 19,1 23,9 16,9 15,7 50 27 71 38 W 1008,9 30 58 0,0
26.06.2017 14:00:00 16,6 9,7 19,1 22,7 16,3 15,7 49 26 67 36 W 1008,2 30 58 0,0
26.06.2017 13:00:00 15,4 9,1 16,7 20,8 15,8 15,7 48 26 65 35 W 1008,1 30 57 0,0
26.06.2017 12:00:00 15,7 9,2 17,6 18,7 15,4 15,7 44 24 63 34 W 1007,6 35 60 0,0
26.06.2017 11:00:00 15,4 8,7 17,0 17,5 15,0 15,7 44 24 64 35 W 1007,1 35 58 0,0
26.06.2017 10:00:00 15,2 9,0 16,3 16,4 14,7 15,8 46 25 61 33 W 1006,4 35 59 0,0
26.06.2017 09:00:00 14,9 9,1 15,5 15,0 14,5 15,8 46 25 61 33 W 1006,4 35 58 0,0
26.06.2017 08:00:00 14,2 8,6 13,9 13,3 14,5 15,8 42 23 56 30 W 1006,2 40 48 0,0
26.06.2017 07:00:00 13,8 7,8 13,3 11,7 14,7 15,8 36 20 52 28 W 1006,2 35 60 0,0
26.06.2017 06:00:00 12,8 8,6 11,7 11,3 14,9 15,8 33 18 58 32 W 1006,3 35 41 0,0
26.06.2017 05:00:00 13,1 8,5 12,0 11,5 15,1 15,8 42 23 59 32 W 1006,2 44 0 0,0
26.06.2017 04:00:00 13,5 8,3 12,7 11,9 15,4 15,8 39 21 55 30 W 1006,2 47 0 0,0
26.06.2017 03:00:00 13,6 9,0 12,9 12,2 15,6 15,8 35 19 55 30 W 1006,2 43 0 0,0
26.06.2017 02:00:00 13,5 8,5 12,5 12,1 15,9 15,8 36 19 57 31 W 1006,4 49 0 0,0
26.06.2017 01:00:00 14,1 8,2 13,3 12,8 16,2 15,9 39 21 57 31 W 1006,5 57 0 0,0
26.06.2017 00:00:00 14,5 8,5 13,9 13,1 16,5 15,9 42 23 57 31 W 1006,4 49 0 0,0
25.06.2017 23:00:00 14,2 8,5 13,3 13,2 16,9 15,9 35 19 61 33 W 1006,6 50 0 0,0
25.06.2017 22:00:00 14,7 8,8 13,9 14,0 17,2 15,9 39 21 56 30 W 1006,5 50 11 0,0
25.06.2017 21:00:00 15,2 9,8 14,3 15,0 17,5 15,9 42 23 57 31 W 1006,2 45 60 0,0
25.06.2017 20:00:00 15,8 10,8 15,8 16,9 17,6 15,9 40 22 59 32 W 1006,1 12 59 0,0
25.06.2017 19:00:00 16,4 10,6 17,3 17,8 17,6 15,9 45 24 60 32 W 1006,1 19 30 0,0
25.06.2017 18:00:00 16,3 11,4 16,7 18,2 17,6 15,9 41 22 60 32 W 1006,0 32 4 0,0
25.06.2017 17:00:00 16,6 10,9 17,6 19,0 17,6 15,9 43 23 59 32 W 1006,0 24 23 0,0
25.06.2017 16:00:00 16,8 11,8 17,4 19,1 17,4 16,0 37 20 56 31 W 1006,0 33 14 0,0
25.06.2017 15:00:00 17,3 11,9 18,2 19,6 17,2 16,0 39 21 68 37 W 1005,5 35 22 0,0
25.06.2017 14:00:00 16,4 12,9 16,7 19,0 16,8 16,0 32 17 57 31 WZW 1005,2 25 0 0,0
25.06.2017 13:00:00 17,6 13,7 19,6 21,4 16,3 16,0 42 23 60 33 WZW 1005,2 35 48 0,0
25.06.2017 12:00:00 16,2 13,9 17,0 18,5 16,1 16,0 39 21 50 27 W 1005,0 38 12 0,1
25.06.2017 11:00:00 15,1 14,5 15,5 16,7 15,9 16,0 27 15 37 20 WZW 1004,7 15 0 1,6
25.06.2017 10:00:00 15,1 14,9 15,2 15,9 15,8 16,0 24 13 36 19 ZW 1004,7 6 0 0,3
25.06.2017 09:00:00 14,8 13,9 14,9 15,4 15,7 16,0 27 15 35 19 ZW 1005,1 8 0 0,0
25.06.2017 08:00:00 14,3 13,4 14,4 14,8 15,7 16,0 19 10 32 17 ZW 1005,8 28 0 0,0
25.06.2017 07:00:00 14,4 12,9 14,9 14,2 15,7 16,0 26 14 32 18 ZW 1006,3 22 50 0,0
25.06.2017 06:00:00 13,6 12,2 13,0 13,4 15,8 16,0 22 12 33 18 ZW 1006,9 22 25 0,0
25.06.2017 05:00:00 13,5 12,4 13,0 13,3 16,0 16,1 18 10 26 14 ZW 1007,3 29 0 0,0
25.06.2017 04:00:00 13,9 10,9 13,3 13,2 16,2 16,1 20 11 31 17 W 1007,9 43 0 0,0
25.06.2017 03:00:00 13,5 10,4 12,8 12,8 16,4 16,1 24 13 40 22 W 1008,4 47 0 0,0
25.06.2017 02:00:00 12,6 10,2 11,7 12,8 16,8 16,1 21 12 44 24 W 1008,8 44 0 0,0
25.06.2017 01:00:00 13,8 9,6 12,9 13,4 17,1 16,1 34 18 46 25 W 1009,0 46 0 0,0
25.06.2017 00:00:00 13,9 10,8 13,0 13,8 17,4 16,1 31 17 55 30 W 1008,9 35 0 0,0
24.06.2017 23:00:00 14,7 11,2 13,7 14,5 17,8 16,1 39 21 52 28 W 1008,8 36 0 0,0
24.06.2017 22:00:00 15,1 11,2 14,2 15,3 18,1 16,1 39 21 61 33 W 1008,3 41 0 0,0
24.06.2017 21:00:00 15,2 12,5 14,2 16,4 18,3 16,1 40 21 62 33 W 1007,9 54 40 0,0
24.06.2017 20:00:00 15,8 14,2 15,5 18,1 18,4 16,1 37 20 63 34 W 1007,6 21 34 0,8
24.06.2017 19:00:00 16,9 15,2 16,5 18,9 18,4 16,2 44 24 66 35 WZW 1006,8 22 3 0,0
24.06.2017 18:00:00 17,9 15,7 19,2 20,0 18,3 16,2 43 23 65 35 WZW 1006,6 11 9 0,0
24.06.2017 17:00:00 17,7 16,0 18,9 19,9 18,1 16,2 49 26 67 36 WZW 1007,0 18 2 0,0
24.06.2017 16:00:00 17,2 15,5 18,1 20,2 18,0 16,2 42 23 58 31 WZW 1007,2 23 2 0,2
24.06.2017 15:00:00 16,9 16,3 17,2 19,6 17,8 16,2 42 23 61 33 WZW 1007,3 4,5 0 0,2
24.06.2017 14:00:00 17,9 16,0 19,3 20,1 17,5 16,2 41 22 59 32 WZW 1007,2 18 1 0,0
24.06.2017 13:00:00 17,6 15,7 18,6 19,0 17,3 16,2 37 20 56 30 WZW 1007,6 18 0 0,0
24.06.2017 12:00:00 16,9 15,8 17,0 17,6 17,2 16,2 35 19 51 28 WZW 1007,8 16 0 0,0
24.06.2017 11:00:00 16,2 15,9 16,2 17,4 17,1 16,2 31 17 52 28 WZW 1007,9 6 0 0,1
24.06.2017 10:00:00 17,1 15,2 17,6 17,4 17,0 16,2 35 19 61 33 WZW 1007,9 18 0 0,0
24.06.2017 09:00:00 16,7 14,8 17,1 16,8 16,9 16,2 36 19 54 29 WZW 1008,0 20 1 0,0
24.06.2017 08:00:00 16,1 14,8 16,2 16,1 16,9 16,2 35 19 51 28 WZW 1008,2 15 0 0,0
24.06.2017 07:00:00 15,8 14,4 15,8 15,6 17,0 16,2 36 20 50 27 WZW 1008,5 18 0 0,0
24.06.2017 06:00:00 15,5 13,9 15,4 15,3 17,1 16,2 34 18 48 26 W 1008,9 20 0 0,0
24.06.2017 05:00:00 15,3 13,9 15,1 15,2 17,2 16,2 31 17 47 25 W 1009,1 15 0 0,0
24.06.2017 04:00:00 15,3 13,6 14,9 15,1 17,3 16,2 29 16 44 24 W 1009,4 15 0 0,0
24.06.2017 03:00:00 15,2 13,2 14,9 15,0 17,4 16,2 29 15 49 26 W 1009,7 18 0 0,0
24.06.2017 02:00:00 15,1 13,7 14,8 15,2 17,6 16,2 27 15 47 25 W 1009,9 14 0 0,0
24.06.2017 01:00:00 14,9 13,4 14,4 15,1 17,8 16,2 38 21 52 28 W 1010,5 16 0 0,0
24.06.2017 00:00:00 15,0 13,0 14,5 15,2 18,0 16,2 40 22 57 31 W 1010,5 18 0 0,0
23.06.2017 23:00:00 15,2 13,0 14,6 15,5 18,2 16,2 34 18 48 26 W 1010,8 20 0 0,0
23.06.2017 22:00:00 15,4 13,0 14,3 16,1 18,4 16,2 37 20 53 28 W 1010,7 14 0 0,0
23.06.2017 21:00:00 16,4 14,0 16,0 16,7 18,6 16,2 40 22 51 28 W 1010,3 22 0 0,0
23.06.2017 20:00:00 16,6 14,9 16,4 17,2 18,7 16,2 37 20 53 28 W 1010,0 14 0 0,0
23.06.2017 19:00:00 16,2 15,1 16,1 17,3 18,8 16,2 39 21 60 32 W 1009,5 11 0 0,0
23.06.2017 18:00:00 16,2 15,7 16,2 17,6 19,0 16,2 39 21 57 31 W 1009,0 6 0 0,0
23.06.2017 17:00:00 16,2 16,2 16,3 17,9 19,1 16,2 39 21 53 29 W 1008,5 2,0 0 0,7
23.06.2017 16:00:00 16,5 16,4 16,5 18,2 19,1 16,2 31 17 42 23 W 1008,3 2,6 0 0,4
23.06.2017 15:00:00 16,5 16,4 16,6 18,3 19,2 16,2 28 15 38 21 W 1008,2 1,5 0 0,2
23.06.2017 14:00:00 16,4 16,4 16,7 18,4 19,3 16,2 27 14 35 19 W 1007,7 1,5 0 0,3
23.06.2017 13:00:00 16,4 16,4 16,7 18,5 19,3 16,2 22 12 33 18 W 1007,5 1,0 0 0,2
23.06.2017 12:00:00 16,2 16,2 16,3 18,3 19,4 16,2 27 14 35 19 W 1007,1 1,2 0 0,0
23.06.2017 11:00:00 16,1 16,0 16,3 18,4 19,5 16,1 26 14 37 20 W 1006,4 0,5 0 0,0
23.06.2017 10:00:00 16,3 16,1 16,7 18,4 19,6 16,1 27 15 42 23 W 1005,7 3,0 0 0,0
23.06.2017 09:00:00 16,6 16,4 17,1 18,5 19,7 16,1 31 17 43 23 W 1005,0 2,5 0 0,0
23.06.2017 08:00:00 16,6 16,3 16,6 17,9 19,9 16,1 34 18 48 26 W 1004,2 2,0 0 0,0
23.06.2017 07:00:00 16,7 16,2 16,6 18,0 20,1 16,1 38 20 48 26 W 1003,9 3,5 0 0,0
23.06.2017 06:00:00 16,9 16,9 16,7 18,1 20,4 16,1 32 17 42 23 W 1003,2 3,5 0 3,8
23.06.2017 05:00:00 16,9 16,8 16,8 18,3 20,7 16,1 27 14 38 21 W 1003,6 1,4 0 4,0
23.06.2017 04:00:00 17,3 16,8 17,1 18,7 20,9 16,1 26 14 35 19 WZW 1003,1 3,8 0 1,7
23.06.2017 03:00:00 17,0 17,0 17,0 18,7 21,3 16,1 10 5 30 16 ZZO 1003,6 0,5 0 3,2
23.06.2017 02:00:00 16,7 16,5 16,7 19,1 21,6 16,1 14 7 19 10 Z 1003,6 6 0 0,2
23.06.2017 01:00:00 16,2 16,0 16,1 19,4 22,1 16,1 18 10 29 15 ZO 1003,9 3,8 0 0,6
23.06.2017 00:00:00 16,2 15,5 15,8 20,0 22,5 16,1 21 11 29 16 ZO 1005,0 8 0 0,3
22.06.2017 23:00:00 16,1 14,8 15,7 21,0 22,9 16,1 17 9 33 18 OZO 1005,6 15 0 0,2
22.06.2017 22:00:00 16,2 14,8 16,3 22,4 23,3 16,1 14 8 25 13 OZO 1006,5 18 0 0,0
22.06.2017 21:00:00 16,8 13,7 17,2 23,9 23,6 16,1 17 9 24 13 ZZO 1006,8 27 4 0,0
22.06.2017 20:00:00 16,7 14,7 17,8 26,1 23,6 16,1 17 9 24 13 OZO 1007,1 16 15 0,0
22.06.2017 19:00:00 17,8 15,1 20,5 28,4 23,4 16,1 7 4 19 10 O 1007,6 18 57 0,0
22.06.2017 18:00:00 17,8 14,8 21,1 29,7 23,0 16,1 5 3 16 9 O 1008,2 21 49 0,0
22.06.2017 17:00:00 18,3 13,7 24,7 30,8 22,4 16,1 5 3 16 9 O 1009,2 23 56 0,0
22.06.2017 16:00:00 18,7 13,3 23,2 29,9 21,8 16,0 10 5 20 11 ZZO 1009,7 27 59 0,0
22.06.2017 15:00:00 17,9 13,2 22,0 26,8 21,5 16,0 11 6 22 12 Z 1010,1 35 49 0,0
22.06.2017 14:00:00 17,3 12,5 19,1 23,0 21,5 16,0 8 4 27 15 ZZW 1010,8 40 0 0,0
22.06.2017 13:00:00 16,8 10,0 17,7 23,7 21,3 16,0 19 11 29 16 WZW 1012,4 45 0 0,0
22.06.2017 12:00:00 18,1 11,4 20,3 26,5 20,8 16,0 15 8 21 11 ZZW 1012,1 40 11 0,0
22.06.2017 11:00:00 18,3 11,6 21,5 25,6 20,3 16,0 13 7 30 16 ZW 1012,6 35 39 0,0
22.06.2017 10:00:00 18,2 11,7 21,4 24,2 20,0 16,0 17 9 26 14 WZW 1013,1 30 50 0,0
22.06.2017 09:00:00 17,6 13,0 19,4 22,3 19,7 16,0 11 6 21 12 WZW 1013,1 35 52 0,0
22.06.2017 08:00:00 16,3 12,1 17,2 20,2 19,7 16,0 8 5 14 8 WZW 1013,3 35 59 0,0
22.06.2017 07:00:00 15,0 11,0 14,9 18,1 19,8 16,0 6 4 12 7 W 1013,9 35 45 0,0
22.06.2017 06:00:00 14,4 10,4 14,0 17,7 20,1 16,0 7 4 15 8 NW 1014,1 35 6 0,0
22.06.2017 05:00:00 14,6 10,2 14,4 17,7 20,3 15,9 11 6 17 9 NW 1014,6 37 0 0,0

tt = temperatuur
td = dauwpunt
tt 5cm = temperatuur 5cm
tt -5cm = temperatuur -5cm
tt -20cm = temperatuur -20cm
tt -100cm = temperatuur -100cm
ff = windsnelheid
fx = windstoten
dd = windrichting
ppp = luchtdruk
vv = zicht
sd = Zonneschijnduur
rr = neerslag

Weerstations in de omgeving